Location: Fours
(44.3167°N, 6.7000°E)
Time: 20:16:23
(UTC+00:00)

Cosmos 1447 Rocket - Pass Details

Date: 16 October 2021
Orbit: 954 x 996 km, 82.9° (Epoch: 29 November)

Event Time Altitude Azimuth Distance (km) Brightness Sun altitude
Rises 18:58:57 0° 354° (N) 3,651 7.7 -24.3°
Reaches altitude 10° 19:01:30 10° 357° (N) 2,697 7.0 -24.7°
Maximum altitude 19:07:37 65° 79° (E) 1,044 4.3 -25.8°
Enters shadow 19:07:59 64° 99° (E) 1,054 4.3 -25.8°
